Vertical_Velocity
-1 2 2 -6 1 2 -2 -0 0 -2 -3 -1 15 8 -1 -4 -1 -5 1 -3 3 -1 3 0 -0 -0 1 -0 -1 1 2 0 -3 -1 -3 1 -0 -1 -1 0 -2 -1 -1
5 5 -5 -8 4 -2 -1 2 2 2 3 1 8 4 4 -2 -0 0 0 -2 5 -0 -2 1 4 -1 -2 1 1 1 -0 -1 -2 -2 -2 -0 -1 -1 -0 -1 -1 -1 -0
-1 -2 -4 3 -7 -3 2 -2 3 3 1 1 2 -2 -2 -2 -3 -0 -1 1 1 1 -1 -3 -2 -1 -4 -4 -4 -4 1 -0 -1 -1 -3 -0 -3 -2 0 -0 -1 -2 -1
-4 -7 -6 -4 -3 -2 -6 -7 4 1 -2 0 -1 2 2 -2 -1 -3 -0 -1 2 2 -1 -3 5 2 1 -0 2 -3 1 1 -0 -1 -2 1 -2 -2 -1 -1 -1 0 0
1 -2 2 2 -2 -0 1 -5 -5 4 2 3 11 3 -2 -3 -2 -2 -2 3 1 3 -1 -2 4 2 -0 0 -2 1 -2 2 0 1 0 1 -1 -2 -1 -1 -2 -2 -0
3 7 14 -1 -2 -2 -5 -9 -6 -2 -2 -4 -4 6 -0 1 -4 1 -0 2 1 -1 2 -5 -4 1 2 4 -0 2 0 1 2 1 1 -1 -1 -2 -3 -1 -1 -0 -2
4 2 15 43 -6 -5 -4 1 -5 -3 -5 -2 -4 12 3 1 -2 0 0 3 -0 3 -1 -2 -0 -2 4 0 2 2 4 3 1 0 -1 -1 -0 -0 -1 0 -1 -0 -2
1 3 6 22 24 -9 -7 -1 -0 1 -0 -0 5 9 -2 -2 -1 -3 -0 -0 1 3 0 1 -0 -1 -0 2 2 2 1 2 0 1 -2 0 -1 -0 1 1 0 -1 -1
3 -0 5 2 12 9 13 30 -7 2 -0 0 -3 1 10 -3 -5 -3 -2 2 2 2 2 0 -1 0 1 -1 -1 3 1 1 0 1 1 1 1 0 0 0 0 0 1
5 -3 2 1 -3 6 12 -2 -0 2 4 -4 -4 -0 11 2 -2 -1 -1 1 -6 3 4 -1 0 -0 4 1 -0 1 2 0 -1 1 1 1 1 1 -0 1 1 2 0
7 2 19 9 6 -4 12 22 4 13 8 2 -3 -3 0 -2 -3 1 -3 1 -0 -2 -2 1 2 1 3 2 3 2 2 4 4 3 3 1 1 1 2 0 3 4 2
1 4 2 2 -3 1 -3 -2 27 3 -3 10 2 -1 3 -3 1 -5 -1 1 -1 2 2 1 -1 1 -1 1 2 -0 -0 1 2 2 2 3 3 3 3 3 1 1 0
-2 3 6 -1 -5 -3 -4 -2 -3 -4 6 12 0 -1 -3 -6 2 -1 -1 4 -1 6 6 5 5 0 1 -1 -1 1 3 3 4 3 0 2 4 3 3 1 1 2 2
-3 -1 1 0 -2 1 -2 -2 -2 3 13 11 7 1 5 3 0 1 -4 -1 4 1 8 7 2 1 0 0 -2 2 0 1 0 2 2 2 2 -0 1 2 -0 1 0
3 0 -1 3 -1 -1 1 -4 4 9 6 20 5 5 4 -5 0 -3 -1 -5 1 3 3 5 1 -2 3 -1 -0 2 0 1 1 -0 -0 1 1 -0 1 1 2 -0 0
0 0 -2 1 1 -4 -3 -5 11 19 14 8 -4 4 1 1 3 -7 8 -2 0 1 4 4 1 1 3 2 5 2 3 3 1 2 2 -0 -1 1 -1 -0 0 0 1
3 -1 2 -2 3 -2 -3 1 16 15 11 3 -4 -1 6 -2 7 -2 1 0 -1 13 3 3 1 -1 -1 2 1 1 0 -0 -2 -3 3 2 -1 -3 1 -1 0 -0 -1
1 1 2 -1 1 4 1 -1 -1 5 8 9 6 -4 2 8 7 19 5 3 4 0 2 2 -0 -1 1 -1 -3 -0 -3 0 1 3 -1 -2 -1 -4 -0 -0 -1 2 -3
1 -1 -1 -2 -1 -2 -0 3 4 1 0 3 -4 3 4 2 3 2 6 3 1 2 1 1 -1 2 3 -1 -0 3 4 1 1 1 2 -1 -3 0 -0 -1 -1 -3 -1
2 0 2 0 -0 2 4 3 1 -3 1 4 2 6 8 3 8 2 2 -1 0 3 2 1 -4 6 2 0 -2 -0 -0 2 -1 -1 4 1 1 -0 -3 -1 0 -3 1
1 3 -2 -3 -3 -1 -3 -1 0 5 5 -0 -2 -0 1 6 2 -2 -0 -1 -1 -3 2 1 -1 1 -5 6 3 -0 2 -2 2 1 2 3 -8 -5 -3 -4 1 -1 -1
1 2 -0 1 1 -2 -3 -1 -5 -4 -2 1 5 2 1 -1 -0 3 1 1 -1 -3 -1 -2 1 1 -5 1 -3 0 3 -0 3 -0 -1 -2 -5 -2 -2 -2 -1 -1 -0
0 -2 -1 -0 -1 -1 3 4 -1 -0 2 1 -0 3 1 0 -1 3 -0 -3 -3 -2 2 -0 -3 3 -6 -0 1 -2 1 -2 -0 -3 -0 -3 -5 -2 -3 0 0 1 -1
-3 -1 7 -3 2 0 0 5 1 2 2 1 -3 -2 -4 -0 -2 -2 4 5 5 -2 0 -4 -0 -5 -4 -4 2 -4 -1 4 -1 7 -3 3 1 -1 1 1 3 -1 -1
0 4 6 -4 3 -5 0 3 -4 7 -3 0 -1 1 -1 -2 2 -1 -1 0 -1 3 2 -1 0 -5 -0 4 -2 -2 2 3 2 -2 7 -0 -2 -5 -0 0 -3 1 1
-1 -3 -3 -7 -5 -0 -1 -2 -2 -5 -1 0 1 -2 3 -1 -0 2 3 -3 -3 -1 5 -3 -3 1 1 -2 -1 -1 -1 -1 0 1 1 0 4 1 3 5 4 -0 2
Height
5780 5782 5784 5785 5790 5792 5794 5798 5802 5806 5808 5811 5814 5815 5815 5820 5824 5829 5832 5834 5836 5838 5841 5840 5841 5843 5844 5844 5844 5844 5845 5844 5844 5844 5843 5844 5844 5843 5843 5844 5844 5844 5843
5777 5777 5777 5781 5783 5785 5791 5792 5800 5803 5808 5808 5810 5810 5814 5818 5822 5825 5829 5832 5833 5835 5838 5838 5841 5842 5841 5843 5844 5843 5843 5843 5842 5841 5842 5842 5843 5841 5842 5842 5841 5841 5840
5770 5771 5773 5775 5780 5781 5785 5789 5795 5798 5804 5805 5809 5809 5811 5815 5819 5822 5826 5829 5831 5833 5835 5838 5839 5839 5840 5840 5842 5842 5842 5840 5841 5840 5841 5841 5840 5840 5839 5840 5839 5839 5838
5766 5766 5767 5769 5772 5775 5778 5784 5788 5792 5796 5801 5805 5806 5806 5810 5816 5820 5823 5826 5830 5832 5833 5835 5835 5836 5837 5839 5840 5839 5839 5838 5838 5838 5838 5838 5837 5837 5837 5837 5836 5836 5836
5758 5758 5758 5761 5765 5768 5772 5775 5781 5784 5789 5796 5800 5802 5802 5807 5812 5816 5820 5823 5827 5829 5830 5832 5833 5834 5835 5835 5836 5835 5835 5834 5834 5834 5835 5835 5834 5835 5834 5835 5834 5834 5834
5751 5750 5744 5751 5756 5762 5764 5769 5774 5778 5783 5788 5792 5800 5802 5803 5808 5810 5816 5821 5824 5826 5828 5830 5829 5830 5830 5831 5831 5832 5831 5831 5831 5832 5831 5832 5831 5832 5832 5833 5833 5833 5833
5740 5741 5742 5744 5743 5752 5755 5761 5766 5774 5780 5782 5789 5795 5798 5800 5805 5807 5814 5818 5821 5822 5824 5826 5826 5825 5825 5826 5827 5827 5827 5828 5829 5829 5828 5828 5828 5829 5829 5830 5830 5831 5831
5731 5727 5732 5738 5745 5743 5748 5754 5759 5768 5774 5779 5785 5792 5794 5799 5802 5804 5810 5815 5817 5818 5821 5821 5821 5820 5821 5821 5822 5823 5824 5825 5825 5826 5825 5826 5826 5826 5826 5827 5828 5828 5828
5725 5728 5730 5732 5735 5734 5741 5751 5752 5759 5765 5773 5779 5787 5792 5796 5799 5802 5806 5809 5813 5816 5818 5818 5817 5816 5817 5819 5818 5819 5820 5820 5820 5822 5822 5823 5823 5824 5824 5824 5825 5825 5826
5724 5724 5727 5729 5731 5734 5737 5741 5748 5753 5759 5767 5775 5781 5787 5790 5795 5799 5801 5806 5810 5813 5813 5813 5814 5813 5813 5814 5814 5814 5815 5815 5816 5818 5819 5819 5820 5820 5821 5822 5822 5823 5823
5723 5722 5724 5725 5725 5726 5730 5740 5745 5750 5754 5761 5767 5774 5781 5786 5791 5794 5799 5803 5807 5809 5810 5809 5811 5811 5809 5809 5810 5812 5811 5811 5813 5814 5815 5815 5816 5817 5818 5818 5820 5820 5820
5723 5722 5721 5724 5724 5727 5730 5734 5733 5743 5751 5755 5761 5770 5777 5781 5786 5791 5795 5799 5802 5804 5804 5806 5807 5808 5807 5805 5805 5807 5807 5808 5810 5811 5812 5812 5812 5814 5814 5815 5815 5816 5817
5722 5723 5724 5722 5717 5719 5721 5725 5731 5737 5746 5753 5758 5766 5772 5779 5782 5786 5791 5795 5796 5798 5800 5802 5802 5803 5803 5802 5802 5803 5804 5806 5807 5808 5808 5808 5809 5810 5810 5810 5811 5812 5813
5721 5723 5723 5722 5718 5717 5719 5720 5722 5730 5739 5749 5753 5760 5768 5775 5780 5783 5787 5788 5790 5793 5794 5796 5798 5798 5799 5798 5798 5799 5800 5801 5803 5804 5805 5805 5805 5806 5807 5807 5808 5808 5808
5719 5721 5721 5722 5718 5714 5714 5716 5714 5725 5734 5744 5750 5756 5765 5772 5774 5780 5784 5784 5785 5787 5789 5790 5792 5792 5793 5793 5793 5795 5797 5797 5799 5800 5801 5802 5801 5802 5802 5803 5803 5803 5803
5718 5721 5722 5723 5721 5717 5715 5713 5718 5728 5736 5742 5750 5755 5761 5765 5770 5776 5778 5779 5781 5783 5784 5785 5786 5786 5786 5787 5790 5793 5794 5794 5795 5795 5796 5799 5798 5799 5799 5798 5798 5798 5798
5716 5718 5720 5721 5721 5720 5719 5718 5725 5732 5740 5746 5750 5754 5756 5760 5765 5770 5772 5775 5778 5780 5779 5779 5782 5782 5783 5783 5786 5789 5790 5791 5792 5792 5792 5794 5794 5794 5794 5793 5792 5791 5790
5715 5716 5719 5720 5720 5722 5724 5725 5730 5734 5740 5744 5747 5748 5752 5757 5761 5766 5767 5770 5773 5773 5774 5775 5778 5778 5779 5781 5784 5785 5786 5787 5788 5788 5789 5790 5789 5789 5788 5788 5786 5786 5785
5713 5715 5717 5719 5721 5722 5724 5726 5730 5733 5738 5742 5744 5748 5752 5755 5758 5761 5762 5766 5766 5768 5769 5771 5772 5774 5776 5778 5781 5782 5783 5783 5783 5783 5783 5784 5784 5783 5782 5781 5781 5780 5778
5710 5712 5715 5717 5720 5721 5722 5725 5728 5731 5734 5736 5740 5744 5748 5751 5754 5757 5758 5760 5762 5764 5765 5767 5768 5770 5773 5776 5777 5778 5779 5780 5779 5778 5778 5779 5778 5777 5777 5775 5774 5773 5770
5708 5710 5713 5715 5718 5720 5722 5725 5727 5730 5734 5737 5740 5743 5746 5749 5752 5751 5753 5756 5758 5759 5760 5763 5765 5767 5768 5770 5772 5773 5774 5775 5774 5773 5773 5772 5772 5771 5770 5767 5765 5763 5761
5709 5709 5710 5712 5714 5717 5721 5723 5726 5728 5730 5732 5735 5738 5740 5741 5744 5746 5750 5752 5754 5755 5759 5760 5761 5762 5765 5767 5768 5768 5769 5770 5768 5768 5768 5767 5765 5764 5762 5759 5757 5754 5751
5713 5711 5711 5711 5713 5716 5718 5719 5723 5726 5728 5729 5733 5733 5735 5737 5740 5743 5746 5749 5750 5753 5755 5757 5759 5759 5760 5762 5760 5762 5762 5762 5762 5761 5761 5760 5758 5756 5753 5750 5747 5745 5742
5716 5713 5713 5715 5714 5716 5717 5720 5720 5723 5725 5727 5729 5730 5733 5736 5738 5740 5745 5747 5749 5753 5754 5756 5756 5755 5755 5756 5755 5756 5756 5756 5756 5755 5754 5752 5749 5747 5744 5740 5737 5734 5731
5714 5713 5716 5717 5717 5718 5719 5721 5723 5725 5728 5726 5728 5731 5735 5735 5738 5739 5744 5746 5750 5750 5751 5751 5749 5747 5747 5747 5748 5748 5748 5748 5749 5747 5746 5745 5741 5738 5735 5731 5727 5724 5720
5717 5717 5717 5718 5719 5719 5721 5724 5725 5726 5727 5727 5730 5732 5732 5735 5737 5740 5742 5743 5744 5745 5746 5745 5742 5741 5742 5742 5742 5740 5740 5740 5738 5735 5734 5734 5731 5728 5725 5721 5716 5711 5708